Вернуться в каталог

STARLINK-5277

АктивенСвязьVLEO
NORAD 55269·PAYLOAD·🇺🇸 United States

Запущен Jan 19, 2023 с Vandenberg Space Force Base

Loading…

Ближайшие Пролёты (ближайшие 24 часа)

TLE

СвежийSource: CelesTrak SupGP

Эпоха: Sep 14, 2026, 21:29 UTC

1 55269C 23010A   26257.89562500  .00764800  00000+0  63070-1 0  2578
2 55269  69.9992 287.4822 0003217 264.1104 148.6757 14.98567211    10

Отслеживайте STARLINK-5277 в реальном времени с AllMySat

Download on the App Store